Weather History for KCVO - August, 2014

Change the Weather History Date:

Monday, August 11, 2014

  Actual Average Record
Temperature  
Mean Temperature 79 °F -  
Max Temperature 98 °F 84 °F 98 °F (2014)
Min Temperature 60 °F 53 °F 48 °F (2005)
Cooling Degree Days 14    
Growing Degree Days 29 (Base 50)    
Moisture  
Dew Point 60 °F    
Average Humidity 57    
Maximum Humidity 94    
Minimum Humidity 28    
Precipitation  
Precipitation 0.00 in - - ()
Sea Level Pressure  
Sea Level Pressure 29.88 in    
Wind  
Wind Speed 7 mph (WNW)    
Max Wind Speed 21 mph    
Max Gust Speed 28 mph    
Visibility 10 miles    
Events      
Averages and records for this station are not official NWS values.
T = Trace of Precipitation, MM = Missing Value Source: NWS Daily Summary

Daily Weather History Graph

Daily Weather History Graph

Search for Another Location

Airport or City:

Trip Planner

Search our weather history database for the weather conditions in past years. The results will help you decide how hot, cold, wet, or windy it might be!

Date:

Astronomy

Aug. 11, 2014 Rise Set
Actual Time 6:11 AM PDT 8:24 PM PDT
Civil Twilight 5:39 AM PDT 8:56 PM PDT
Nautical Twilight 4:59 AM PDT 9:35 PM PDT
Astronomical Twilight 4:15 AM PDT 10:19 PM PDT
Moon 8:50 PM PDT (8/11) 7:28 AM PDT (8/11)
Length of Visible Light 15h 17m
Length of Day
14h 12m
Full, 98% of the Moon is Illuminated
Aug 11
Full
Aug 17
Last Quarter
Aug 25
New
Sep 2
First Quarter
Sep 8
Full

Hourly Weather History & Observations

Time (PDT) Temp. Heat Index Dew Point Humidity Pressure Visibility Wind Dir Wind Speed Gust Speed Precip Events Conditions
12:15 AM 73.4 °F - 64.4 °F 73% 29.90 in - WNW 10.4 mph - N/A   Unknown
12:35 AM 73.4 °F - 64.4 °F 73% 29.91 in - SSW 8.1 mph - N/A   Unknown
12:55 AM 73.4 °F - 66.2 °F 78% 29.90 in - NNW 5.8 mph - N/A   Unknown
1:15 AM 75.2 °F - 62.6 °F 65% 29.91 in 10.0 mi NNW 6.9 mph - N/A   Unknown
1:35 AM 73.4 °F - 62.6 °F 69% 29.90 in 10.0 mi WNW 6.9 mph - N/A   Unknown
1:55 AM 71.6 °F - 62.6 °F 73% 29.91 in 10.0 mi WNW 5.8 mph - N/A   Unknown
2:15 AM 73.4 °F - 62.6 °F 69% 29.90 in 10.0 mi NW 5.8 mph - N/A   Unknown
2:35 AM 73.4 °F - 62.6 °F 69% 29.90 in 10.0 mi NW 5.8 mph - N/A   Unknown
2:55 AM 71.6 °F - 62.6 °F 73% 29.90 in 10.0 mi NNW 4.6 mph - N/A   Unknown
3:15 AM 71.6 °F - 60.8 °F 69% 29.91 in 10.0 mi NNW 3.5 mph - N/A   Unknown
3:35 AM 71.6 °F - 60.8 °F 69% 29.90 in 10.0 mi WNW 6.9 mph - N/A   Unknown
3:55 AM 69.8 °F - 60.8 °F 73% 29.90 in 10.0 mi WNW 5.8 mph - N/A   Unknown
4:15 AM 69.8 °F - 60.8 °F 73% 29.90 in - Calm Calm - N/A   Unknown
4:35 AM 66.2 °F - 60.8 °F 83% 29.91 in - SW 4.6 mph - N/A   Unknown
4:55 AM 64.4 °F - 60.8 °F 88% 29.91 in - Calm Calm - N/A   Unknown
5:15 AM 64.4 °F - 59.0 °F 83% 29.90 in - Calm Calm - N/A   Unknown
5:35 AM 62.6 °F - 59.0 °F 88% 29.90 in - Calm Calm - N/A   Unknown
5:55 AM 62.6 °F - 59.0 °F 88% 29.91 in - Calm Calm - N/A   Unknown
6:15 AM 62.6 °F - 57.2 °F 82% 29.91 in - Calm Calm - N/A   Unknown
6:35 AM 60.8 °F - 57.2 °F 88% 29.91 in - WSW 3.5 mph - N/A   Unknown
6:55 AM 62.6 °F - 60.8 °F 94% 29.92 in - SW 4.6 mph - N/A   Unknown
7:15 AM 64.4 °F - 60.8 °F 88% 29.92 in - South 3.5 mph - N/A   Unknown
7:35 AM 64.4 °F - 60.8 °F 88% 29.92 in - Calm Calm - N/A   Unknown
7:55 AM 69.8 °F - 60.8 °F 73% 29.92 in - Calm Calm - N/A   Unknown
8:15 AM 71.6 °F - 62.6 °F 73% 29.93 in - SE 3.5 mph - N/A   Unknown
8:35 AM 73.4 °F - 62.6 °F 69% 29.93 in - Calm Calm - N/A   Unknown
8:55 AM 75.2 °F - 62.6 °F 65% 29.93 in 10.0 mi South 3.5 mph - N/A   Unknown
9:15 AM 77.0 °F - 62.6 °F 61% 29.92 in 10.0 mi SSE 3.5 mph - N/A   Unknown
9:35 AM 78.8 °F - 60.8 °F 54% 29.92 in 10.0 mi Calm Calm - N/A   Unknown
9:55 AM 80.6 °F 81.1 °F 59.0 °F 48% 29.92 in 10.0 mi Calm Calm - N/A   Unknown
10:15 AM - - - N/A% - - North - - N/A   Unknown
10:35 AM 82.4 °F - 48.2 °F 30% 29.92 in 10.0 mi SSE 3.5 mph - N/A   Unknown
10:55 AM 84.2 °F 83.0 °F 55.4 °F 37% 29.91 in 8.0 mi Calm Calm - N/A   Unknown
11:15 AM - - - N/A% - - North - - N/A   Unknown
11:35 AM 87.8 °F 86.1 °F 55.4 °F 33% 29.90 in - Calm Calm - N/A   Unknown
11:55 AM 87.8 °F 86.5 °F 57.2 °F 35% 29.89 in - Calm Calm - N/A   Unknown
12:15 PM 87.8 °F 87.1 °F 59.0 °F 38% 29.89 in - Calm Calm - N/A   Unknown
12:35 PM 89.6 °F 89.5 °F 60.8 °F 38% 29.89 in - ESE 4.6 mph - N/A   Unknown
12:55 PM 91.4 °F 91.4 °F 60.8 °F 36% 29.89 in - SE 4.6 mph - N/A   Unknown
1:15 PM 89.6 °F 89.5 °F 60.8 °F 38% 29.88 in - ESE 5.8 mph - N/A   Unknown
1:35 PM 89.6 °F 89.5 °F 60.8 °F 38% 29.88 in - SE 3.5 mph - N/A   Unknown
1:55 PM 93.2 °F 92.6 °F 59.0 °F 32% 29.88 in - Calm Calm - N/A   Unknown
2:15 PM 93.2 °F 92.6 °F 59.0 °F 32% 29.87 in - East 3.5 mph - N/A   Unknown
2:35 PM 96.8 °F 96.2 °F 59.0 °F 28% 29.86 in - Calm Calm - N/A   Unknown
2:55 PM 96.8 °F 96.2 °F 59.0 °F 28% 29.86 in - Calm Calm - N/A   Unknown
3:35 PM 96.8 °F 97.1 °F 60.8 °F 30% 29.84 in - WNW 4.6 mph - N/A   Unknown
3:55 PM 98.6 °F 100.0 °F 62.6 °F 30% 29.83 in - NW 6.9 mph - N/A   Unknown
4:15 PM 93.2 °F 94.9 °F 64.4 °F 38% 29.83 in - NW 17.3 mph - N/A   Unknown
4:35 PM 91.4 °F 92.1 °F 62.6 °F 38% 29.83 in - NW 17.3 mph - N/A   Unknown
4:55 PM 89.6 °F 89.5 °F 60.8 °F 38% 29.83 in - NW 15.0 mph 24.2 mph N/A   Unknown
5:15 PM 89.6 °F 89.5 °F 60.8 °F 38% 29.83 in - NW 16.1 mph - N/A   Unknown
5:35 PM 87.8 °F 87.6 °F 60.8 °F 40% 29.82 in - NW 16.1 mph - N/A   Unknown
5:55 PM 87.8 °F 87.6 °F 60.8 °F 40% 29.82 in 10.0 mi NW 17.3 mph - N/A   Unknown
6:15 PM 84.2 °F 83.5 °F 57.2 °F 40% 29.83 in 10.0 mi NW 20.7 mph 26.5 mph N/A   Unknown
6:35 PM 84.2 °F 83.5 °F 57.2 °F 40% 29.83 in 10.0 mi WNW 16.1 mph 23.0 mph N/A   Unknown
6:55 PM 84.2 °F 83.5 °F 57.2 °F 40% 29.83 in 10.0 mi WNW 15.0 mph - N/A   Unknown
7:15 PM 82.4 °F 82.0 °F 57.2 °F 42% 29.83 in 10.0 mi WNW 15.0 mph - N/A   Unknown
7:35 PM 82.4 °F 82.0 °F 57.2 °F 42% 29.82 in 10.0 mi WNW 13.8 mph - N/A   Unknown
7:55 PM 80.6 °F 80.8 °F 57.2 °F 45% 29.82 in 10.0 mi WNW 15.0 mph 20.7 mph N/A   Unknown
8:15 PM 80.6 °F 80.8 °F 57.2 °F 45% 29.83 in 10.0 mi WNW 15.0 mph 19.6 mph N/A   Unknown
8:35 PM 78.8 °F - 57.2 °F 47% 29.85 in 10.0 mi WNW 15.0 mph - N/A   Unknown
8:55 PM 77.0 °F - 57.2 °F 50% 29.86 in 10.0 mi WNW 12.7 mph - N/A   Unknown
9:15 PM 75.2 °F - 57.2 °F 53% 29.87 in 10.0 mi NW 13.8 mph - N/A   Unknown
9:35 PM 71.6 °F - 57.2 °F 60% 29.88 in 10.0 mi WNW 13.8 mph - N/A   Unknown
9:55 PM 71.6 °F - 57.2 °F 60% 29.90 in 10.0 mi WNW 9.2 mph - N/A   Unknown
10:35 PM 69.8 °F - 57.2 °F 64% 29.88 in - WNW 15.0 mph - N/A   Unknown
10:55 PM 68.0 °F - 57.2 °F 68% 29.87 in - WNW 15.0 mph - N/A   Unknown
11:15 PM 66.2 °F - 55.4 °F 68% 29.85 in - WNW 19.6 mph 24.2 mph N/A   Unknown
11:35 PM 64.4 °F - 55.4 °F 73% 29.84 in - WNW 19.6 mph 24.2 mph N/A   Unknown
11:55 PM 64.4 °F - 55.4 °F 73% 29.84 in - WNW 18.4 mph 27.6 mph N/A   Unknown